Flag for Germany Weather past 2 weeks in Altenburg, Thuringia, Germany

Now
51 °F

Passing clouds.


Feels Like: 51 °F
Forecast: 51 / 77 °F
Wind: 2 mph from Southwest

Location: Gera-Leumnitz

Current Time: Jul 31, 2015 at 2:00:03 AM

Latest Report: Jul 31, 2015 at 1:00 AM


Visibility: 22 mi

Pressure: 30.05 "Hg

Humidity: 79%

Dew point: 45 °F

Location of AltenburgLocation

Historic Weather in Altenburg — Graph

°F

Altenburg temperature yesterday

Maximum temperature yesterday: 68 °F (at 5:00 PM)
Minimum temperature yesterday: 49 °F (at 5:00 AM)
Average temperature yesterday: 59 °F

Past Weeks' High & Low Weather Summary

 TemperatureHumidityPressure
High92 °F (Jul 17, 6:00 PM)100% (Jul 19, 4:00 AM)30.08 "Hg (Jul 19, 4:00 AM)
Low49 °F (Jul 30, 5:00 AM)26% (Jul 17, 5:00 PM)29.60 "Hg (Jul 27, 1:00 PM)
Average68 °F64%29.87 "Hg
* Reported Jul 16 1:00 AM — Jul 31 1:00 AM, Altenburg, Weather by CustomWeather, © 2015

Note: Actual official high and low records may vary slightly from our data, if they occured in-between our weather recording intervals... More about our weather records

Advertising

Altenburg weather history for previous 24 hours

 ConditionsComfort  
Time TempWeatherWind HumidityBarometerVisibility
1:00 AM
Fri, Jul 31
51 °FPassing clouds.2 mph79%30.05 "Hg22 mi
11:00 PM
Thu, Jul 30
56 °FClear.3 mph66%30.02 "Hg31 mi
10:00 PM57 °FPassing clouds.3 mph65%30.00 "Hg34 mi
9:00 PM60 °FPassing clouds.5 mph55%29.98 "Hg40 mi
8:00 PM63 °FPassing clouds.6 mph46%29.95 "Hg43 mi
7:00 PM65 °FPassing clouds.6 mph42%29.94 "Hg43 mi
6:00 PM64 °FOvercast.7 mph43%29.94 "Hg43 mi
5:00 PM68 °FOvercast.8 mph36%29.92 "Hg25 mi
4:00 PM67 °FOvercast.7 mph41%29.92 "Hg25 mi
3:00 PM65 °FOvercast.7 mph42%29.92 "Hg37 mi
2:00 PM66 °FPartly sunny.8 mph43%29.91 "Hg19 mi
1:00 PM63 °FScattered clouds.8 mph49%29.92 "Hg31 mi
12:00 PM64 °FPartly sunny.8 mph48%29.92 "Hg12 mi
10:00 AM59 °FHaze.9 mph58%29.92 "Hg11 mi
9:00 AM56 °FSunny.10 mph64%29.92 "Hg13 mi
8:00 AM55 °FSunny.9 mph67%29.91 "Hg22 mi
7:00 AM51 °FSunny.7 mph76%29.93 "Hg31 mi
5:00 AM49 °FClear.7 mph78%29.91 "Hg43 mi
4:00 AM50 °FClear.7 mph77%29.90 "Hg43 mi
3:00 AM51 °FClear.7 mph76%29.89 "Hg43 mi
2:00 AM52 °FClear.6 mph72%29.88 "Hg43 mi
Weather by CustomWeather, © 2015

See weather overviewHow to use our weather pages